Temperature
15 15 15 15 15 15 15 16 17 17 17 16 15 15 14 14 14 14 14 14 14 14 14 14 14 14 14 14 14 14 14 14 14 14 14 14 14 14
15 15 15 15 15 15 15 15 15 16 17 17 15 15 14 14 14 14 14 14 14 14 14 14 14 14 14 14 13 13 13 13 13 13 14 14 14 14
14 14 14 14 15 15 14 15 15 15 16 16 15 14 14 14 14 14 14 14 14 14 14 14 14 14 14 13 13 13 13 13 13 13 13 13 13 13
14 14 14 14 14 14 14 14 14 14 14 15 15 14 14 14 13 14 14 14 14 14 14 14 14 13 13 13 13 13 13 13 13 13 13 13 13 13
14 14 14 14 14 14 14 14 14 14 14 14 14 14 14 14 13 13 14 13 14 14 14 13 13 13 13 13 13 13 13 13 13 13 13 13 13 13
14 14 14 14 14 14 14 14 14 14 14 14 14 14 14 14 13 13 14 14 13 14 13 13 13 13 13 13 13 13 13 13 13 13 13 13 13 13
14 14 14 14 14 14 14 14 14 13 14 14 14 14 14 14 14 14 14 14 14 13 13 13 13 13 13 13 13 13 13 13 13 13 13 13 13 12
14 14 14 15 14 14 14 14 14 13 13 14 14 14 13 13 13 13 13 13 13 14 13 13 13 13 13 13 13 13 13 13 13 12 12 12 12 12
14 14 14 14 14 14 14 14 14 14 14 13 13 13 13 13 13 12 12 12 13 13 12 13 13 13 13 13 13 12 12 12 12 12 12 12 12 12
14 14 14 14 14 14 13 13 13 13 14 13 13 13 13 12 12 12 12 12 12 12 12 12 12 13 13 13 12 12 12 12 12 12 12 12 12 12
14 14 14 14 14 14 14 13 13 13 13 13 13 13 13 12 12 12 11 11 12 13 12 12 12 12 12 12 12 12 12 12 12 12 12 12 12 12
14 14 14 14 14 14 14 13 13 13 13 12 12 12 12 12 12 12 11 11 12 12 12 12 12 12 12 12 12 12 12 11 11 11 11 11 11 11
14 14 14 14 14 13 13 13 13 13 12 12 12 12 12 12 11 11 11 11 11 11 11 11 11 11 11 11 11 11 11 11 11 11 11 11 11 11
13 13 13 13 13 13 13 13 12 12 12 12 12 12 11 11 11 11 11 11 10 10 10 10 10 10 10 10 11 11 11 11 11 11 11 11 10 10
13 13 13 13 13 13 12 12 12 12 11 11 11 11 11 11 11 10 10 10 10 10 10 10 9 9 9 9 10 10 10 10 10 10 10 10 10 10
13 13 12 12 12 12 12 12 11 11 11 11 11 11 11 10 10 10 10 10 10 10 10 10 9 9 9 9 9 9 10 10 10 10 10 10 10 10
12 12 12 12 12 11 11 11 11 10 10 10 10 10 10 10 10 10 9 9 9 9 10 9 9 9 9 8 8 9 9 9 10 10 9 9 9 10
12 11 11 11 11 11 11 11 10 10 10 10 10 10 10 9 9 9 9 9 9 9 9 9 9 8 8 8 8 8 9 9 9 9 9 9 9 9
11 11 11 11 11 10 10 10 10 10 9 9 9 9 9 9 9 9 8 8 8 8 8 8 8 8 8 8 9 8 8 8 8 8 8 8 8 9
11 10 10 10 10 10 10 10 9 9 9 9 8 8 8 8 8 8 8 8 8 8 8 8 7 7 7 7 7 7 8 7 7 7 8 8 8 8
10 10 9 9 9 9 9 9 8 8 8 8 8 8 8 7 7 7 7 7 7 7 7 7 7 7 6 6 6 7 7 7 7 7 7 7 7 8
9 9 9 9 8 8 8 8 8 8 8 7 7 7 7 7 7 7 7 7 7 7 7 7 7 6 6 6 6 6 7 7 7 7 7 7 7 7
8 8 8 8 8 8 8 7 7 7 7 7 7 7 6 6 6 6 6 6 6 6 6 6 6 6 6 6 6 6 7 7 7 7 7 8 7 7
Wind_Speed
6 6 4 3 3 3 3 4 5 4 4 5 4 4 4 4 3 6 5 6 6 7 7 8 8 9 9 9 10 11 11 11 12 13 13 13 13 14
4 4 4 4 3 3 3 3 4 5 4 1 3 2 2 4 5 6 8 6 11 11 10 10 10 11 11 11 12 12 13 13 14 14 15 15 15 15
6 6 6 4 4 4 4 4 4 4 5 3 3 3 4 6 4 6 8 9 10 13 12 12 13 13 14 14 14 14 14 15 15 16 16 16 17 17
8 7 7 6 5 5 4 5 4 4 5 5 4 4 5 6 6 8 9 10 10 9 12 14 15 16 16 16 16 17 17 17 17 17 17 17 17 17
8 8 8 7 7 6 6 6 5 5 5 6 6 5 6 6 7 8 10 8 12 11 13 17 18 18 18 19 19 19 19 19 19 19 19 19 19 19
9 9 9 9 9 8 7 7 6 6 6 7 7 7 6 6 7 8 8 7 8 10 10 11 14 18 21 22 22 21 21 21 20 20 20 20 20 20
10 10 10 8 6 7 7 7 7 8 8 8 8 8 7 6 7 7 8 9 9 9 9 10 10 12 13 19 24 23 22 21 21 20 21 21 21 22
10 10 10 10 10 10 9 8 8 9 9 9 9 8 8 9 8 8 9 10 10 7 8 10 10 11 12 15 12 13 18 20 20 21 22 22 22 23
10 10 9 9 11 11 12 13 13 13 12 12 12 11 11 10 9 11 10 11 12 11 11 13 12 12 13 14 11 13 17 20 21 22 22 23 23 23
11 11 11 10 10 10 11 11 12 12 13 13 12 12 12 10 9 11 12 13 14 12 11 13 13 12 12 13 13 16 19 21 22 23 23 24 24 24
12 12 12 12 7 7 10 11 12 11 11 12 12 12 12 11 10 9 11 12 13 12 10 12 13 13 12 13 13 15 19 21 23 24 24 24 25 23
11 11 10 11 7 9 10 11 12 10 9 8 9 12 13 14 14 12 12 12 13 12 10 9 12 12 13 12 11 11 13 17 23 25 25 25 24 18
10 9 8 11 10 10 10 10 9 7 8 9 9 10 9 9 10 11 11 11 12 13 11 10 12 12 14 14 13 12 12 12 13 15 20 24 24 19
8 8 5 10 10 10 9 8 6 6 8 8 9 9 9 9 9 9 10 12 13 15 15 13 12 13 14 16 15 13 12 12 12 13 14 14 18 24
7 2 2 7 8 8 10 9 8 8 8 9 10 10 10 9 9 9 11 12 15 16 17 15 14 13 14 15 16 15 15 14 13 14 14 14 13 13
7 4 6 7 7 6 6 8 9 8 8 9 10 10 10 9 10 10 10 10 11 12 13 15 14 14 14 15 15 16 15 15 14 14 13 14 14 15
6 6 6 6 7 7 7 7 7 7 8 9 10 10 10 10 10 10 10 11 12 13 13 11 11 12 14 14 14 15 15 15 14 13 13 15 15 15
5 6 6 6 7 7 7 7 7 8 8 9 9 10 11 11 11 11 11 11 12 13 13 12 11 11 12 13 13 15 14 14 14 13 14 15 16 15
6 6 6 6 6 6 6 7 7 8 7 9 10 10 10 10 11 11 11 11 12 12 12 12 12 12 14 16 13 10 13 14 15 15 14 14 16 15
5 5 5 5 5 6 7 7 8 8 8 8 9 9 10 10 11 11 11 12 12 13 13 12 11 11 13 15 16 15 14 15 14 15 15 15 15 15
4 4 5 5 6 6 7 7 8 8 8 8 9 9 10 10 10 11 12 14 13 13 14 13 11 10 12 12 13 15 14 13 14 15 16 16 17 16
3 4 4 5 6 6 6 7 7 8 8 8 9 9 9 10 11 12 12 12 12 13 14 13 11 10 11 13 15 17 17 16 15 17 20 19 16 16
3 4 5 5 5 5 6 7 9 8 8 9 9 9 10 10 10 11 12 12 12 13 13 13 12 11 12 13 15 15 18 18 15 15 15 15 19 23
Wind_Direction
189 189 211 197 218 228 241 256 262 254 225 190 221 201 230 238 197 241 248 198 223 244 255 265 273 275 275 274 273 272 272 271 272 273 272 270 271 268
197 189 206 206 202 215 226 238 256 270 272 212 221 231 261 265 206 248 260 229 233 239 250 259 265 270 270 270 271 270 270 270 271 270 270 269 269 269
193 192 203 215 214 212 216 227 237 250 258 250 234 225 240 266 259 261 261 259 252 220 234 249 260 265 266 266 267 268 268 269 269 268 268 268 268 267
201 201 204 201 210 231 226 231 237 252 258 263 258 244 233 246 256 265 269 267 274 232 225 243 255 260 262 264 265 266 267 267 267 268 268 268 268 267
206 207 209 209 214 219 228 235 234 233 246 257 259 261 258 254 261 262 265 265 271 260 232 235 243 250 256 259 261 262 263 264 265 266 266 267 267 267
212 215 217 217 220 223 226 234 243 247 242 252 259 258 256 255 258 269 271 260 268 278 276 264 246 240 246 249 252 254 257 259 260 262 263 264 265 265
216 220 224 226 237 238 244 234 234 243 249 251 258 263 264 269 270 277 281 284 275 273 276 274 266 261 254 243 241 245 249 253 257 259 261 262 263 263
220 223 224 218 220 226 250 261 265 254 258 265 267 271 275 275 280 282 284 284 285 283 284 283 282 279 275 271 259 238 241 249 255 258 260 262 262 262
224 226 232 223 211 228 223 226 240 246 252 260 268 272 277 278 281 277 275 280 284 290 290 283 282 279 278 276 255 246 248 252 256 259 260 261 261 262
227 228 233 239 230 230 239 238 240 238 234 238 252 263 271 281 276 273 281 279 273 268 265 275 282 282 283 282 264 244 246 251 254 257 259 261 261 261
231 230 232 236 217 211 240 248 252 254 243 235 250 265 280 279 272 272 272 275 279 281 272 273 282 285 285 282 274 245 239 244 249 253 256 257 258 260
226 229 227 234 215 199 233 247 253 258 264 250 240 248 254 252 238 242 261 270 277 282 283 279 282 287 286 282 282 280 264 250 243 245 248 250 251 257
231 228 221 194 209 212 230 247 257 270 267 264 260 256 251 251 247 242 247 260 272 277 286 288 286 286 285 287 286 281 280 280 272 261 250 244 242 241
239 240 218 171 193 210 223 237 242 252 257 259 260 262 264 264 263 264 260 258 261 269 278 282 279 280 283 284 286 287 284 281 281 280 280 267 244 238
240 240 147 165 189 213 221 219 225 239 248 254 259 262 267 273 275 272 266 258 257 261 265 264 267 273 275 278 283 285 285 282 278 277 277 276 273 266
228 201 182 196 223 242 225 220 233 243 250 259 265 271 274 271 268 272 277 280 278 279 271 263 261 267 272 275 279 281 282 282 281 279 278 278 275 271
204 215 222 220 226 231 236 240 242 242 244 255 266 273 275 276 278 280 280 283 282 285 288 285 275 269 270 274 278 279 282 284 283 282 282 280 276 274
199 221 227 229 234 238 243 247 249 252 257 261 265 270 276 280 282 283 281 280 281 284 287 290 291 288 282 275 257 273 280 284 288 289 286 282 280 278
211 229 236 240 243 250 256 262 266 266 267 269 272 276 280 282 283 284 285 285 285 286 288 290 289 286 286 287 285 260 282 289 289 287 285 282 282 283
230 242 248 253 259 264 267 270 273 275 271 272 276 279 282 284 284 284 284 285 286 287 287 286 284 284 285 290 294 293 276 279 285 287 288 287 284 281
238 253 262 269 271 270 271 273 274 275 278 282 282 283 285 286 285 284 284 285 283 285 286 287 289 283 285 287 284 284 286 272 266 275 285 288 287 287
267 269 273 274 274 277 277 277 278 278 281 281 287 290 290 288 287 288 291 292 289 286 288 290 293 290 286 282 283 288 290 291 281 262 255 259 271 280
284 287 285 284 286 287 287 286 286 289 291 291 290 289 289 289 289 288 288 289 292 294 295 296 296 291 285 282 285 289 293 296 294 292 284 265 248 251
Height
1565 1565 1567 1568 1569 1570 1572 1573 1574 1573 1573 1574 1575 1574 1573 1573 1572 1572 1572 1571 1570 1569 1568 1567 1567 1566 1565 1564 1563 1562 1562 1561 1560 1560 1559 1558 1558 1558
1562 1564 1565 1567 1568 1568 1569 1570 1571 1572 1572 1572 1572 1573 1571 1572 1570 1569 1569 1568 1567 1566 1565 1564 1563 1562 1561 1560 1559 1558 1557 1557 1556 1555 1554 1553 1553 1552
1561 1562 1563 1564 1566 1567 1568 1568 1569 1570 1570 1571 1570 1570 1568 1568 1568 1567 1566 1565 1565 1562 1561 1560 1559 1558 1557 1556 1555 1554 1553 1552 1551 1550 1549 1548 1547 1547
1559 1560 1561 1562 1563 1565 1566 1567 1567 1567 1568 1568 1568 1568 1566 1565 1564 1563 1563 1563 1562 1560 1557 1556 1555 1553 1552 1551 1550 1549 1547 1546 1545 1544 1543 1543 1542 1541
1557 1558 1559 1560 1561 1562 1563 1564 1565 1565 1565 1565 1565 1565 1564 1563 1561 1560 1559 1557 1557 1556 1553 1551 1549 1548 1547 1545 1544 1543 1542 1541 1539 1538 1537 1537 1536 1535
1554 1555 1557 1558 1559 1559 1560 1560 1561 1562 1562 1562 1562 1561 1560 1559 1558 1557 1556 1555 1553 1552 1550 1548 1545 1543 1541 1539 1538 1537 1536 1534 1533 1532 1531 1530 1529 1528
1551 1552 1553 1554 1555 1556 1558 1558 1558 1558 1559 1559 1558 1558 1557 1556 1556 1554 1552 1551 1549 1547 1545 1543 1542 1539 1537 1534 1532 1531 1529 1528 1527 1525 1524 1523 1522 1521
1547 1549 1550 1550 1551 1552 1553 1553 1554 1554 1555 1555 1554 1554 1553 1553 1551 1550 1548 1546 1544 1544 1541 1538 1537 1534 1532 1530 1528 1525 1523 1521 1520 1518 1517 1515 1514 1513
1544 1545 1546 1548 1547 1548 1548 1548 1548 1549 1549 1549 1549 1548 1548 1548 1546 1544 1543 1541 1538 1537 1535 1531 1530 1528 1526 1524 1521 1518 1516 1514 1512 1511 1509 1508 1506 1505
1539 1540 1541 1543 1543 1544 1544 1544 1544 1544 1543 1543 1542 1542 1542 1541 1540 1538 1537 1534 1532 1530 1529 1526 1523 1521 1519 1517 1514 1511 1508 1506 1505 1503 1501 1500 1498 1497
1534 1535 1536 1537 1538 1538 1539 1539 1539 1539 1538 1537 1537 1536 1535 1534 1533 1532 1530 1529 1527 1525 1524 1521 1517 1515 1512 1509 1507 1504 1501 1499 1497 1495 1493 1492 1490 1488
1529 1530 1530 1532 1532 1532 1533 1533 1533 1533 1533 1532 1530 1529 1529 1527 1527 1525 1524 1523 1520 1518 1517 1514 1511 1509 1505 1503 1501 1498 1495 1492 1490 1487 1485 1484 1482 1480
1524 1525 1526 1526 1526 1527 1527 1527 1527 1527 1527 1526 1525 1524 1523 1521 1520 1519 1517 1516 1514 1512 1511 1508 1505 1502 1499 1495 1493 1491 1489 1486 1483 1480 1478 1476 1474 1472
1519 1520 1520 1520 1521 1521 1521 1521 1521 1521 1520 1520 1519 1518 1517 1516 1515 1513 1511 1508 1506 1504 1502 1500 1498 1495 1492 1488 1485 1483 1481 1479 1476 1473 1471 1468 1466 1463
1512 1514 1514 1514 1515 1515 1515 1515 1515 1515 1515 1514 1513 1512 1512 1510 1508 1506 1504 1501 1498 1496 1495 1492 1490 1487 1485 1481 1478 1475 1473 1470 1468 1465 1462 1460 1458 1456
1507 1508 1508 1509 1509 1509 1509 1509 1509 1509 1508 1508 1507 1507 1506 1504 1502 1500 1498 1496 1493 1490 1488 1485 1482 1480 1477 1474 1471 1468 1465 1462 1459 1457 1453 1451 1449 1446
1501 1503 1504 1504 1504 1504 1504 1504 1504 1504 1503 1502 1502 1500 1499 1498 1496 1494 1492 1489 1487 1483 1481 1479 1476 1472 1469 1467 1463 1460 1457 1454 1452 1449 1445 1442 1440 1438
1497 1498 1499 1499 1500 1500 1499 1499 1499 1499 1498 1497 1496 1494 1493 1491 1489 1487 1485 1483 1480 1477 1474 1471 1469 1465 1461 1458 1457 1453 1450 1447 1444 1441 1438 1434 1430 1429
1493 1494 1495 1495 1495 1495 1495 1494 1494 1493 1492 1491 1490 1488 1487 1485 1483 1481 1478 1476 1473 1470 1467 1465 1462 1458 1455 1450 1448 1447 1443 1439 1436 1433 1430 1426 1422 1419
1489 1490 1491 1491 1491 1491 1490 1489 1488 1487 1486 1485 1484 1482 1480 1478 1476 1474 1472 1469 1466 1463 1460 1457 1455 1452 1449 1445 1440 1438 1436 1433 1429 1425 1421 1418 1414 1411
1486 1486 1487 1487 1486 1486 1485 1484 1483 1482 1481 1479 1478 1476 1474 1472 1470 1468 1465 1462 1460 1457 1453 1450 1448 1445 1441 1438 1433 1429 1428 1426 1422 1418 1414 1410 1406 1403
1483 1483 1482 1482 1482 1481 1480 1479 1478 1477 1475 1474 1472 1470 1468 1466 1463 1461 1459 1457 1454 1450 1447 1444 1441 1438 1435 1431 1427 1422 1419 1417 1414 1410 1406 1404 1400 1395
1479 1479 1478 1478 1477 1476 1475 1474 1472 1471 1469 1468 1466 1464 1462 1460 1457 1455 1453 1450 1447 1444 1441 1437 1434 1431 1428 1425 1421 1416 1412 1409 1406 1402 1398 1395 1393 1388